Regional Weather Roundup
Issued by NWS

Home | Current Version | Previous Version | Text Only | Print | Product List | Glossary On
Versions: 1 2 3 4 5 6 7 8 9 10 11 12 13 14 15 16 17 18 19 20 21 22 23 24 25 26 27 28 29 30 31 32 33 34 35 36 37 38 39 40 41 42 43 44 45 46 47 48 49 50
000
ASUS45 KCYS 240510
RWRWY

WYOMING REGIONAL WEATHER ROUNDUP
NATIONAL WEATHER SERVICE CHEYENNE WY
1000 PM MST MON JAN 23 2017

NOTE:  "FAIR" INDICATES FEW OR NO CLOUDS BELOW 12,000 FEET
WITH NO SIGNIFICANT WEATHER AND/OR OBSTRUCTIONS TO VISIBILITY.

WYZ001-240600-
YELLOWSTONE NATIONAL PARK

CITY           SKY/WX    TMP DP  RH WIND       PRES   REMARKS
LK YELLOWSTONE   N/A     19  12  74 VRB5      29.49R WCI  12
W YELLOWSTONE  NOT AVBL

$$
WYZ002>013-054>058-071-098>099-240600-
NORTHERN WYOMING

CITY           SKY/WX    TMP DP  RH WIND       PRES   REMARKS
JACKSON        CLOUDY    25  25 100 N13       29.43F WCI  13
CODY           FLURRIES  20  16  84 NW15      29.65S WCI   6
GREYBULL       CLOUDY    23  18  81 NW7       29.62R WCI  15
WORLAND        CLOUDY    23  19  85 NW7       29.65R WCI  15
SHERIDAN       CLOUDY    19  15  84 SE9       29.74F WCI   8
BUFFALO        FOG       18  14  84 NW18G26   29.67R VSB 3/4 WCI   2
GILLETTE       FOG       15  14  95 N14       29.68F VSB 1/2 WCI   0
HULETT         FOG       19  18  93 MISG      29.70R VSB<1/4
NEWCASTLE      CLOUDY    27  25  93 SE12      29.64R WCI  16

$$
WYZ014>020-022>026-101>103-240600-
CENTRAL WYOMING

CITY           SKY/WX    TMP DP  RH WIND       PRES   REMARKS
BIG PINEY      LGT SNOW  20  18  92 NE5       29.44S FOG     WCI  13
PINEDALE       LGT SNOW  23  23 100 E10       29.45S VSB 3/4 WCI  12
DUBOIS         NOT AVBL
LANDER         SNOW      24  23  96 CALM      29.55R VSB 1/2
RIVERTON       SNOW      23  22  96 N13       29.55S VSB 1/2 WCI  11
CASPER         FOG       22  20  92 N22       29.54F VSB 3/4 WCI   6
DOUGLAS        LGT SNOW  26  23  88 NE7       29.60R VSB 3/4 WCI  18

$$
WYZ021-027>030-104>119-240600-
SOUTHERN WYOMING

CITY           SKY/WX    TMP DP  RH WIND       PRES   REMARKS
EVANSTON       CLOUDY    18  14  84 SW20      29.50R WCI   2
ROCK SPRINGS   LGT SNOW  24  19  81 W20       29.49R WCI  10
RAWLINS        CLOUDY    27  21  78 S18       29.49S WCI  14
LARAMIE        FAIR      21  16  81 S15       29.50F WCI   8
CHEYENNE       LGT SNOW  31  30  96 SE9       29.55S FOG     WCI  23
TORRINGTON     LGT SNOW  31  26  82 E15       29.55S WCI  20

$$



USA.gov is the U.S. government's official web portal to all federal, state and local government web resources and services.